Regional Weather Roundup
Issued by NWS Upton, NY

Current Version | Previous Version | Graphics & Text | Print | Product List | Glossary Off
Versions: 1 2 3 4 5 6 7 8 9 10 11 12 13 14 15 16 17 18 19 20 21 22 23 24 25 26 27 28 29 30 31 32 33 34 35 36 37 38 39 40 41 42 43 44 45 46 47 48 49 50

095
ASUS41 KOKX 120208
RWROKX

REGIONAL WEATHER ROUNDUP
NATIONAL WEATHER SERVICE NEW YORK NY
900 PM EST MON DEC 11 2017

NOTE: "FAIR" INDICATES FEW OR NO CLOUDS BELOW 12,000 FEET WITH NO
SIGNIFICANT WEATHER AND/OR OBSTRUCTIONS TO VISIBILITY.

NYZ071-072-176-178-NJZ106-104-120300-
NEW YORK CITY METRO AREA

CITY           SKY/WX    TMP DP  RH WIND       PRES   REMARKS
Central Park   CLOUDY    38  22  52 CALM      30.01F
Bronx Bot Gard   N/A     37  21  52 SW2       29.99F
Bronx Lehman C   N/A     37  23  56 W2          N/A
LaGuardia APRT CLOUDY    40  21  46 SW5       29.99F
Queens College   N/A     39  23  52 SW3         N/A
Kennedy INTL   CLOUDY    38  25  59 W5        30.01F WCI  34
Breezy Point     N/A     37 N/A N/A SW3         N/A
Brooklyn Coll    N/A     39  23  52 S2          N/A
Staten Island    N/A     36  25  64 S1          N/A
Newark/Liberty CLOUDY    38  23  55 SE3       30.00F
Teterboro      CLOUDY    37  22  54 CALM      29.99F
$$

NYZ177-179-078>081-120300-
LONG ISLAND NEW YORK

CITY           SKY/WX    TMP DP  RH WIND       PRES   REMARKS
Jones Beach      N/A     37 N/A N/A NW3         N/A
Wantagh          N/A     34  28  80 N3          N/A
Matinecock PT    N/A     37 N/A N/A S5          N/A  WCI  34
Farmingdale    CLOUDY    34  25  69 CALM      30.00F
MacArthur/ISP  CLOUDY    32  26  78 CALM      30.00S
Shirley        CLOUDY    30  26  85 CALM      30.00F
Mt Sinai Harb    N/A    N/A N/A N/A CALM        N/A
Westhampton    PTCLDY    25  20  81 CALM      30.03S
East Hampton   FAIR      25  22  87 CALM      30.01S
Southold         N/A     32  25  74 W1          N/A
Montauk          N/A     33  24  69 CALM      30.02F
$$

NYZ052-065-067-120300-
HUDSON VALLEY

CITY           SKY/WX    TMP DP  RH WIND       PRES   REMARKS
White Plains   CLOUDY    34  21  59 CALM      29.97F
Larchmont Harb   N/A     37 N/A N/A NW3         N/A
Croton On Huds   N/A     36 N/A N/A E3          N/A
Somers           N/A     32  23  69 E2          N/A
Brewster         N/A     30  23  74 NW1         N/A
Newburgh       MOCLDY    32  23  69 CALM      29.98F
Montgomery     CLOUDY    31  25  78 CALM      29.96F
Otisville        N/A     32  25  74 CALM        N/A
Warwick          N/A     32  25  74 SE3         N/A
Suffern          N/A     32  23  69 SE1         N/A
Poughkeepsie   CLOUDY    32  23  69 CALM      29.98F
Albany         CLOUDY    29  18  63 S3        29.99S
$$

NJZ001-105-106-008-010-013-015-019>022-104-120300-
NEW JERSEY

CITY           SKY/WX    TMP DP  RH WIND       PRES   REMARKS
Newark/Liberty CLOUDY    38  23  55 SE3       30.00F
Teterboro      CLOUDY    37  22  54 CALM      29.99F
Caldwell       CLOUDY    34  22  61 CALM      29.99F
Somerville     CLOUDY    31  27  85 CALM      29.97F
Linden         MOCLDY    36  24  60 CALM      30.00F
Perth Amboy      N/A     36 N/A N/A S2          N/A
Sussex         CLOUDY    32  26  78 CALM      29.96F
Andover        NOT AVBL
Trenton        MOCLDY    33  23  66 E5        29.98F WCI  29
Millville      CLOUDY    30  27  88 CALM      29.99F
Atlantic City  PTCLDY    29  25  85 CALM      30.00F
Wrightstown    CLOUDY    28  25  86 SE3       29.97R
Toms River     CLEAR     24  22  91 CALM      30.01S
Belmar         CLOUDY    31  26  82 CALM      30.00F
$$

PAZ047>061-062-071-120300-
EASTERN PENNSYLVANIA

CITY           SKY/WX    TMP DP  RH WIND       PRES   REMARKS
Philadelphia   MOCLDY    36  24  62 SE3       29.99F
Allentown      CLOUDY    37  22  54 SE5       29.96F WCI  33
Scranton       CLOUDY    33  21  61 CALM      29.90F
$$

CTZ002-004>006-009-010-012-RIZ004-006-007-MAZ004-011-015-120300-
SOUTHERN NEW ENGLAND
 IN CT

CITY           SKY/WX    TMP DP  RH WIND       PRES   REMARKS
Bradley INTL   CLOUDY    30  22  72 CALM      30.01S
Hartford       CLOUDY    32  24  72 SE3       30.02R
Danbury        CLOUDY    31  24  75 CALM      29.99F
Wtrbury/Oxford PTCLDY    29  20  69 CALM      29.97F
Norwalk Harbor   N/A     36 N/A N/A N5          N/A  WCI  32
Bridgeport     CLOUDY    38  22  52 N5        30.00F WCI  34
Meriden        CLOUDY    29  24  82 CALM      30.00F
New Haven      CLOUDY    33  24  69 CALM      30.00F
Chester        MOCLDY    32  19  59 CALM      30.00S
Groton         PTCLDY    30  24  78 NE3       30.01F
Wilimantic     CLOUDY    30  25  81 CALM      30.02S

 IN RI

CITY           SKY/WX    TMP DP  RH WIND       PRES   REMARKS
Providence     CLOUDY    33  26  75 VRB3      30.03S
Block Island     N/A    N/A N/A N/A MISG        N/A
Westerly       PTCLDY    30  27  88 CALM      30.02F
 IN MA

CITY           SKY/WX    TMP DP  RH WIND       PRES   REMARKS
Boston         CLOUDY    36  16  44 CALM      30.03R
Worcester      CLOUDY    29  15  56 SE3       29.97S
Westfield      CLOUDY    29  22  75 CALM      30.00S
Provincetown   CLEAR     28  22  78 CALM      30.03S
Nantucket      MOCLDY    29  26  89 NE5       30.02F WCI  24
$$

ANZ330-335-338-340-345-350-353-355-120300-
COASTAL MARINE OBSERVATIONS


STATION/POSITION TIME  SKY/WX   TEMP    WIND        PRES    VSBY  WAVE
                                AIR SEA DIR/SP/G                  HT/PER
                 (UTC)          (F)     (DEG/KT/KT) (MB)    (MI)  (FT/S)
NY HARB ENTRANCE 0050            42 51  210/  6/ 10 1016.2          2/ 8
20 S FIRE ISLAND 0050            42 53  200/  6/  8 1016.4          3/10
GREAT SOUTH BAY  0130            39 45   40/  2/  4   N/A
HUDSON CANYON    0050            43 56  230/  6/  8 1016.8          3/ 8
KINGS POINT      0124            39 45  250/  5/  7 1016.7
EXECUTION ROCKS  0145            40     170/  4/  6   N/A
WESTERN LI SOUND 0049            39     190/ 10/ 10   N/A           0
CENTRAL LI SOUND NOT AVBL
ROBBINS REEF     0124            39     220/  5/  5 1016.5
$$


>>>>>>>>>>>>>>>>>>>>>>>>>>>> KEY <<<<<<<<<<<<<<<<<<<<<<<<<<<
>                                                          <
>     SKY/WX - Sky Condition/Present Weather               <
>     TMP    - Temperature in Fahrenheit                   <
>     DP     - Dew Point in Fahrenheit                     <
>     RH     - Relative Humidity in Percent                <
>     WIND   - Direction (from) and Speed in MPH           <
>     PRES   - Mean Sea Level Pressure (inches of Hg)      <
>     WCI    - Wind Chill Index                            <
>     VSB    - VISIBILITY IN MILES                         <
>     HX     - HEAT INDEX                                  <
>     TC     - TEMPERATURE IN CELSIUS                      <
>     VRB    - VARIABLE WIND DIRECTION                     <
>                                                          <
>>>>>>>>>>>>>>>>>>>>>>>>>>>> KEY <<<<<<<<<<<<<<<<<<<<<<<<<<<




USA.gov is the U.S. government's official web portal to all federal, state and local government web resources and services.